Preview of NWS' New Version of Forecast
This preview is not operational and should not be used for support decisions.

Regional Weather Roundup (RWR)

Issued by National Weather Service (NWS)

                            
000
ASUS42 KTBW 180417
RWRFL 
FLORIDA REGIONAL WEATHER ROUNDUP
NATIONAL WEATHER SERVICE TAMPA BAY RUSKIN FL
1100 PM EST SUN FEB 17 2019

NOTE: "FAIR" INDICATES FEW OR NO CLOUDS BELOW 12,000 FEET WITH NO
SIGNIFICANT WEATHER AND/OR OBSTRUCTIONS TO VISIBILITY.

FLZ001>010-012>015-112-114-115-180500-
PANHANDLE FLORIDA
  
CITY           SKY/WX    TMP DP  RH WIND       PRES   REMARKS
PENSACOLA      CLOUDY    71  68  90 S8        29.91R                  
PENSACOLA NAS  CLOUDY    69  69 100 S7        29.91R                  
MILTON NAS     CLOUDY    69  69 100 S7        29.91                   
CRESTVIEW      CLOUDY    70  68  93 S10       29.93R                  
DUKE FIELD     CLOUDY    70  70 100 S7        29.91S FOG              
VALPARAISO     MOCLDY    69  69 100 SW6       29.91S FOG              
MARY ESTHER    CLOUDY    68  66  94 S8        29.90                   
PANAMA CITY    CLOUDY    70  68  93 S7        29.93S                  
TYNDALL AFB    CLOUDY    66  66 100 S13       29.94R FOG              
APALACHICOLA   FOG       67  66  97 S9        29.95R VSB 1/2          

STATION/POSITION SKY/WX   TEMP    WIND        PRES    WAVE   SWELL
                          AIR SEA DIR/SP/G            HT/PER HT/PER
                          (F)     (DEG/KT/KT) (MB)    (FT/S) (FT/S)
30.1N   87.6W              67     160/  4/  6 1013.1R   2/ 5   2/ 5
29.2N   88.2W                     100/  2/  2 1013.4R   3/ 6   3/ 6
PANAMA CITY BEAC           65 63  150/  8/ 10 1013.9R
TOWER C                    68     180/ 15/ 17 1014.7R

$$
FLZ011-016>038-118-127-128-134-139-239-180500-
NORTH FLORIDA
  
CITY           SKY/WX    TMP DP  RH WIND       PRES   REMARKS
MARIANNA       CLOUDY    71  71 100 S8        29.92S                  
TALLAHASSEE    CLOUDY    69  69 100 S7        29.96R                  
PERRY          CLOUDY    72  70  95 SW9       29.98S                  
LIVE OAK       CLOUDY    72  72 100 CALM      29.98R                  
CROSS CITY     CLOUDY    71  69  92 S9        29.99R                  
LAKE CITY      MOCLDY    70  68  94 SW6       29.99S                  
GAINESVILLE    FAIR      73  66  78 SW6       30.02R                  
WILLISTON        N/A    N/A N/A N/A MISG        N/A                   
PALATKA        MOCLDY    66  66 100 S3        30.00S                  
MAYPORT NAS    FAIR      62  61  96 CALM      29.98F                  
JACKSONVILLE   FAIR      66  63  90 S3        29.98S                  
JAX NAS        MOCLDY    70  65  84 VRB5      29.99S                  
JAX CECIL      NOT AVBL                                               
FERNANDINA BEA CLOUDY    65  63  92 S3        29.99S                  
ST AUGUSTINE   CLOUDY    66  63  90 CALM      30.00S                  
PALM COAST     FAIR      69  64  86 S3        30.00S                  

STATION/POSITION SKY/WX   TEMP    WIND        PRES    WAVE   SWELL
                          AIR SEA DIR/SP/G            HT/PER HT/PER
                          (F)     (DEG/KT/KT) (MB)    (FT/S) (FT/S)
SHELL POINT      NOT AVBL
KEATON BEACH               67     180/ 13/ 15 1015.4R
CEDAR KEY                  68     200/ 13/ 15 1015.8R
FERNANDINA                        140/  4/  5   N/A
30.7N   81.3W                 59                N/A     2/ 9
MAYPORT                    65 60  190/  2/  2 1015.4S
31.4N   80.9W              62 58  180/ 10/ 12 1014.8F   2/ 7   2/ 7
ST AUGUSTINE               65 60  180/  6/  6 1015.8S

$$
FLZ040-043>046-052-053-057-058-063-144-180500-
INTERIOR CENTRAL FLORIDA
  
CITY           SKY/WX    TMP DP  RH WIND       PRES   REMARKS
OCALA          CLOUDY    69  65  86 SW3       30.01                   
LEESBURG       FAIR      70  65  84 SW5       30.02R                  
SANFORD        FAIR      74  66  76 S5        30.01S                  
ORLANDO EXEC   FAIR      74  63  68 S3        30.01S                  
ORLANDO INTL   FAIR      71  62  73 S6        30.02S                  
KISSIMMEE      FAIR      71  63  75 SW5       30.03S                  
WINTER HAVEN   FAIR      73  64  73 SW7       30.03S                  
LAKELAND       FAIR      70  63  78 CALM      30.03S                  
BARTOW         FAIR      70  64  83 S5        30.02S                  
SEBRING        FAIR      68  63  85 SE8       30.04S                  
OKEECHOBEE     FAIR      72  68  88 S6        30.04S                  

$$
FLZ041-047-054-059-064-141-147-180500-
EAST CENTRAL FLORIDA
  
CITY           SKY/WX    TMP DP  RH WIND       PRES   REMARKS
DAYTONA BEACH  FAIR      70  68  93 S3        30.01R                  
DELAND         FAIR      70  64  83 CALM      30.01S                  
JFK SPACE CTR  FAIR      71  67  88 S6        30.01F                  
CAPE CANAVERAL FAIR      70  66  88 S8        30.01R                  
PATRICK AFB    FAIR      74  71  91 S12       30.02S                  
MELBOURNE      FAIR      74  67  78 S9        30.03R                  
VERO BEACH     FAIR      73  67  81 S8        30.04S                  
FT PIERCE      FAIR      73  67  81 S7        30.04S                  
STUART         FAIR      73  68  83 S6        30.06S                  

STATION/POSITION SKY/WX   TEMP    WIND        PRES    WAVE   SWELL
                          AIR SEA DIR/SP/G            HT/PER HT/PER
                          (F)     (DEG/KT/KT) (MB)    (FT/S) (FT/S)
28.5N   80.2W              70     180/ 16/ 19 1017.1R   2/ 4   2/ 8
28.9N   78.5W              75 76  160/ 14/ 17 1018.3S   3/ 9   2/ 9
TRIDENT PIER               69 66  170/  9/ 12 1017.7R
28.4N   80.5W                 65                N/A     2/ 8

$$
FLZ050-056-061-142-242-148-248-149-249-151-251-155-255-
160-260-180500-
WEST CENTRAL FLORIDA
  
CITY           SKY/WX    TMP DP  RH WIND       PRES   REMARKS
CRYSTAL RIVER  FAIR      70  64  83 CALM      30.01S                  
INVERNESS      FAIR      68  68 100 CALM      30.01S                  
BROOKSVILLE    FAIR      66  63  90 S5        30.02S                  
CLEARWATER AIR FAIR      70  68  94 S5        30.01S                  
ST PETE CLEARW FAIR      71  66  84 S7        30.01S                  
TAMPA INTL     FAIR      72  67  84 S6        30.02S                  
TAMPA EXEC     FAIR      70  64  83 S7        30.03S                  
PLANT CITY     FAIR      70  64  83 CALM      30.04S                  
MACDILL AFB    FAIR      70  67  90 S5        30.01S                  
PETER O KNIGHT CLOUDY    72  72 100 S3        30.02S                  
ST PETERSBURG  NOT AVBL                                               
SARASOTA       FAIR      73  68  84 S9        30.00S                  
VENICE         FAIR      73  72  94 SE10      30.02F                  

STATION/POSITION SKY/WX   TEMP    WIND        PRES    WAVE   SWELL
                          AIR SEA DIR/SP/G            HT/PER HT/PER
                          (F)     (DEG/KT/KT) (MB)    (FT/S) (FT/S)
27.3N   84.2W                 71                N/A     4/ 7
CLEARWATER BEACH           73 68  150/  8/ 11 1016.3S
MIDDLE TAMPA BAY           70     180/  6/  7 1016.5R
VENICE                     73 68  150/ 10/ 12   N/A

$$
FLZ066-069-070-075>078-162-262-165-265-180500-
SOUTHWEST FLORIDA AND KEYS
  
CITY           SKY/WX    TMP DP  RH WIND       PRES   REMARKS
PUNTA GORDA    FAIR      65  63  93 CALM      30.04S                  
FT MYERS       FAIR      72  66  81 S5        30.02S                  
SOUTHWEST INTL CLOUDY    72  66  81 S8        30.03S                  
NAPLES         CLOUDY    75  69  81 SE7       30.03S                  
IMMOKALEE      CLOUDY    72  66  83 SE3       30.02S                  
MARATHON       FAIR      81  74  79 SE9       30.03S                  
KEY WEST NAS   MOCLDY    79  74  84 SE14      30.02S                  
KEY WEST INTL  FAIR      79  74  84 SE13      30.03R                  

STATION/POSITION SKY/WX   TEMP    WIND        PRES    WAVE   SWELL
                          AIR SEA DIR/SP/G            HT/PER HT/PER
                          (F)     (DEG/KT/KT) (MB)    (FT/S) (FT/S)
NAPLES                     75 71  110/  4/  7 1016.8S
26.0N   85.6W              79 80  160/ 12/ 16 1014.4R   6/ 7   3/ 7
DRY TORTUGAS               77     120/  9/ 10 1016.1S
SAND KEY                   78                 1016.5R
SOMBRERO KEY               78                 1016.2S
LONG KEY                   78 76  130/ 14/ 16 1016.7R
MOLASSES REEF              78 78  140/ 16/ 18 1017.6R

$$
FLZ067-068-071>074-168-172>174-180500-
SOUTHEAST FLORIDA 
  
CITY           SKY/WX    TMP DP  RH WIND       PRES   REMARKS
W PALM BEACH   FAIR      75  69  81 S7        30.06R                  
BOCA RATON     PTCLDY    77  72  83 S7        30.06R                  
FT LAUDER-EXEC MOCLDY    76  74  93 SE5       30.05R                  
FT LAUDERDALE  MOCLDY    77  75  93 SE7       30.04S                  
POMPANO BEACH  FAIR      77  73  87 SE7       30.05S                  
PEMBROKE PINES MOCLDY    76  71  85 SE5       30.06S                  
OPA LOCKA      MOCLDY    76  71  85 SE8       30.06R                  
MIAMI          MOCLDY    76  74  93 SE7       30.05S                  
WEST KENDALL   MOCLDY    77  73  87 SE7       30.05R                  
HOMESTEAD      CLOUDY    76  73  88 SE9       30.04S                  

STATION/POSITION SKY/WX   TEMP    WIND        PRES    WAVE   SWELL
                          AIR SEA DIR/SP/G            HT/PER HT/PER
                          (F)     (DEG/KT/KT) (MB)    (FT/S) (FT/S)
PORT EVERGLADES            77     140/  7/ 10 1017.6R
VIRGINIA KEY               77 77  130/  7/ 10 1017.0R
LAKE WORTH                 77 77  190/ 13/ 15 1018.8R
FOWEY ROCKS                78 76  140/ 17/ 18 1018.0R
SETTLEMENT POINT           76     150/  9/ 11 1018.4S

$$